Regional Weather Roundup
Issued by NWS New Orleans/Baton Rouge, LA

Home | Current Version | Previous Version | Text Only | Print | Product List | Glossary Off
Versions: 1 2 3 4 5 6 7 8 9 10 11 12 13 14 15 16 17 18 19 20 21 22 23 24 25 26 27 28 29 30 31 32 33 34 35 36 37 38 39 40 41 42 43 44 45 46 47 48 49 50

202
ASUS44 KLIX 020810
RWRLIX
NEW ORLEANS REGIONAL WEATHER ROUNDUP
NATIONAL WEATHER SERVICE NEW ORLEANS LA
300 AM CDT TUE SEP 02 2014

NOTE: "FAIR" INDICATES FEW OR NO CLOUDS BELOW 12,000 FEET WITH NO
      SIGNIFICANT WEATHER AND/OR OBSTRUCTIONS TO VISIBILITY.
      SKY/WX - SKY CONDITION AND SIGNIFICANT WEATHER.
      TMP - AIR TEMPERATURE.     DP    - DEWPOINT TEMPERATURE.
      RH  - RELATIVE HUMIDITY.   PRES  - PRESSURE.
      HI  - HEAT INDEX.          WCI   - WIND CHILL INDEX.

*  THESE STATIONS ARE NOT NWS OR FAA STATIONS AND ARE NOT UNDER
   NWS QUALITY CONTROL.

LAZ038-040-048-061>063-065>067-069-020900-
SOUTHEAST LOUISIANA

CITY           SKY/WX    TMP DP  RH WIND       PRES   REMARKS
N.O. AUDUBON     N/A     82  76  83 MISG        N/A
N.O. INTL ARPT CLEAR     80  75  84 SE5       30.00S
N.O. LAKEFRONT CLEAR     79  76  90 SE5       30.01S
N.O. DOWNTOWN*   N/A     81  73  78 SE5       30.01S
SLIDELL        PTCLDY    76  73  91 CALM      30.01R
BATON ROUGE    PTCLDY    76  74  93 NE3       30.00S
BOOTHVILLE     PTCLDY    83  77  82 S7        30.01S
BELLE CHASSE   PTCLDY    80  75  84 CALM      30.00S
BOGALUSA*        N/A     76  73  90 CALM      30.04S
GALLIANO*      NOT AVBL
NEW ROADS*       N/A     77  76  96 CALM      30.00S
GONZALES*        N/A     76  76 100 CALM      30.00R
HAMMOND*       CLEAR     77  73  88 CALM      30.03S
HOUMA*         CLEAR     79  74  84 CALM      29.99F
PORT FOURCHON* SUNNY     84  77  79 S6        30.01F

$$

MSZ070-080>082-020900-
SOUTHERN MISSISSIPPI

CITY           SKY/WX    TMP DP  RH WIND       PRES   REMARKS
MCCOMB         PTCLDY    75  74  96 SE3       30.03S
GULFPORT       PTCLDY    83  76  79 S6        30.01S
BILOXI         PTCLDY    83  76  79 SW10      30.02R
PASCAGOULA     PTCLDY    75  74  96 CALM      30.02S

$$

COASTAL OBSERVATIONS
LAKE AND NEARSHORE STATIONS

STATION/POSITION TIME  TEMP    WIND        PRES    WAVE
                       AIR SEA DIR/SP/G            HT/PER
                 (UTC) (F)     (DEG/KT/KT) (MB)    (FT/S)
PASCAGOULA       0800   85     180/  9/ 12 1015.8
WAVELAND YACHT   0800   83     210/  4/  9 1015.5
GRAND ISLE       0800   84 85  180/  5/  9 1016.4
SOUTHWEST PASS   0800   84 90  190/ 12/ 14 1016.1
NEW CANAL        0800   79 81  150/  2/  3 1016.4
SHELL BEACH      0800   81 81  150/  5/  6 1016.0

OFFSHORE STATIONS

STATION/POSITION TIME  TEMP    WIND        PRES    WAVE
                       AIR SEA DIR/SP/G            HT/PER
                 (UTC) (F)     (DEG/KT/KT) (MB)    (FT/S)
64 S DAUPHIN ISL 0712   84 85  150/  8/ 10 1016.5

$$




USA.gov is the U.S. government's official web portal to all federal, state and local government web resources and services.